• In Deutschland
  • Länderverzeichnis
  • Für 7 Tage
  • Wassertemperatur
  • Satellitenkarten
  • Wetterkarte
  • Widgets
  • user-avatar
    Anmelden

    Stündliche Wetter Bad Holzhausen

    Heute, 18 Februar, Sonntag

    Zeit Temperatur Niederschläge Wind Luftdruck Luftfeuchtigkeit
    00:00 -1°C° 0 mm 1 m/S 749 mmHg 89%
    01:00 -1°C° 0 mm 1 m/S 750 mmHg 89%
    02:00 -1°C° 0 mm 1 m/S 750 mmHg 89%
    03:00 -1°C° 0 mm 1 m/S 750 mmHg 89%
    04:00 -1°C° 0 mm 1 m/S 750 mmHg 89%
    05:00 -1°C° 0 mm 1 m/S 750 mmHg 89%
    06:00 -1°C° 0 mm 1 m/S 750 mmHg 88%
    07:00 -1°C° 0 mm 1 m/S 750 mmHg 87%
    08:00 -2°C° 0 mm 2 m/S 750 mmHg 82%
    09:00 -1°C° 0 mm 2 m/S 750 mmHg 77%
    10:00 +1°C° 0 mm 2 m/S 751 mmHg 71%
    11:00 +2°C° 0 mm 2 m/S 750 mmHg 66%
    12:00 +3°C° 0 mm 2 m/S 750 mmHg 60%
    13:00 +4°C° 0 mm 2 m/S 750 mmHg 55%
    14:00 +4°C° 0 mm 2 m/S 750 mmHg 57%
    15:00 +4°C° 0 mm 2 m/S 750 mmHg 59%
    16:00 +4°C° 0 mm 2 m/S 749 mmHg 60%
    17:00 +3°C° 0 mm 2 m/S 749 mmHg 66%
    18:00 +2°C° 0 mm 2 m/S 749 mmHg 71%
    19:00 -1°C° 0 mm 2 m/S 749 mmHg 77%
    20:00 -1°C° 0 mm 2 m/S 749 mmHg 78%
    21:00 -1°C° 0 mm 2 m/S 749 mmHg 79%
    22:00 -2°C° 0 mm 2 m/S 749 mmHg 80%
    23:00 -2°C° 0 mm 2 m/S 749 mmHg 80%

    Morgen, 19 Februar, Montag

    Zeit Temperatur Niederschläge Wind Luftdruck Luftfeuchtigkeit
    00:00 -2°C° 0 mm 2 m/S 749 mmHg 81%
    01:00 -2°C° 0 mm 2 m/S 748 mmHg 81%
    02:00 -2°C° 0 mm 2 m/S 748 mmHg 81%
    03:00 -2°C° 0 mm 2 m/S 748 mmHg 80%
    04:00 -2°C° 0 mm 2 m/S 747 mmHg 80%
    05:00 -2°C° 0 mm 2 m/S 747 mmHg 79%
    06:00 -2°C° 0 mm 2 m/S 747 mmHg 78%
    07:00 -2°C° 0 mm 2 m/S 747 mmHg 77%
    08:00 -1°C° 0 mm 2 m/S 747 mmHg 73%
    09:00 +1°C° 0 mm 2 m/S 747 mmHg 69%
    10:00 +1°C° 0 mm 2 m/S 747 mmHg 65%
    11:00 +2°C° 0 mm 2 m/S 746 mmHg 62%
    12:00 +3°C° 0 mm 2 m/S 746 mmHg 58%
    13:00 +4°C° 0 mm 2 m/S 746 mmHg 55%
    14:00 +4°C° 0 mm 2 m/S 745 mmHg 58%
    15:00 +5°C° 0 mm 1 m/S 745 mmHg 61%
    16:00 +5°C° 0 mm 1 m/S 745 mmHg 64%
    17:00 +4°C° 0 mm 1 m/S 744 mmHg 67%
    18:00 +3°C° 0 mm 1 m/S 744 mmHg 70%
    19:00 +2°C° 0 mm 1 m/S 744 mmHg 73%
    20:00 +2°C° 0,2 mm 1 m/S 744 mmHg 74%
    21:00 +2°C° 0,2 mm 1 m/S 744 mmHg 75%
    22:00 +1°C° 0,2 mm 2 m/S 743 mmHg 76%
    23:00 +1°C° 0,5 mm 2 m/S 743 mmHg 79%

    übermorgen, 20 Februar, Dienstag

    Zeit Temperatur Niederschläge Wind Luftdruck Luftfeuchtigkeit
    00:00 +1°C° 0,5 mm 2 m/S 743 mmHg 81%
    01:00 +1°C° 0,5 mm 2 m/S 742 mmHg 83%
    02:00 -1°C° 0,7 mm 2 m/S 742 mmHg 85%
    03:00 -1°C° 0,7 mm 2 m/S 742 mmHg 88%
    04:00 -1°C° 0,7 mm 2 m/S 741 mmHg 91%
    05:00 -1°C° 0,5 mm 2 m/S 741 mmHg 92%
    06:00 -1°C° 0,5 mm 2 m/S 741 mmHg 93%
    07:00 -1°C° 0,5 mm 2 m/S 741 mmHg 94%
    08:00 -1°C° 0,2 mm 2 m/S 741 mmHg 93%
    09:00 -1°C° 0,2 mm 3 m/S 741 mmHg 93%
    10:00 0°C° 0,2 mm 3 m/S 742 mmHg 92%
    11:00 0°C° 0 mm 3 m/S 742 mmHg 89%
    12:00 +1°C° 0 mm 3 m/S 742 mmHg 86%
    13:00 +1°C° 0 mm 3 m/S 742 mmHg 83%
    14:00 +1°C° 0 mm 3 m/S 743 mmHg 82%
    15:00 +2°C° 0 mm 3 m/S 743 mmHg 81%
    16:00 +2°C° 0 mm 3 m/S 743 mmHg 79%
    17:00 0°C° 0 mm 3 m/S 743 mmHg 81%
    18:00 -1°C° 0 mm 3 m/S 744 mmHg 83%
    19:00 -2°C° 0 mm 3 m/S 744 mmHg 84%
    20:00 -2°C° 0 mm 3 m/S 745 mmHg 85%
    21:00 -4°C° 0 mm 3 m/S 745 mmHg 87%
    22:00 -4°C° 0 mm 3 m/S 746 mmHg 88%
    23:00 -3°C° 0 mm 2 m/S 746 mmHg 89%

    21 Februar, Mittwoch

    Zeit Temperatur Niederschläge Wind Luftdruck Luftfeuchtigkeit
    00:00 -4°C° 0 mm 2 m/S 746 mmHg 90%
    01:00 -4°C° 0 mm 2 m/S 746 mmHg 91%
    02:00 -4°C° 0 mm 2 m/S 746 mmHg 92%
    03:00 -5°C° 0 mm 2 m/S 746 mmHg 92%
    04:00 -5°C° 0 mm 2 m/S 746 mmHg 93%
    05:00 -5°C° 0 mm 2 m/S 747 mmHg 93%
    06:00 -6°C° 0 mm 3 m/S 747 mmHg 94%
    07:00 -6°C° 0 mm 3 m/S 747 mmHg 94%
    08:00 -5°C° 0 mm 3 m/S 747 mmHg 91%
    09:00 -4°C° 0 mm 4 m/S 747 mmHg 89%
    10:00 -4°C° 0 mm 4 m/S 747 mmHg 86%
    11:00 -3°C° 0 mm 4 m/S 747 mmHg 83%
    12:00 -3°C° 0 mm 4 m/S 747 mmHg 81%
    13:00 -3°C° 0 mm 4 m/S 747 mmHg 78%
    14:00 -2°C° 0 mm 4 m/S 747 mmHg 76%
    15:00 -2°C° 0 mm 4 m/S 747 mmHg 75%
    16:00 -2°C° 0 mm 4 m/S 747 mmHg 73%
    17:00 -3°C° 0 mm 4 m/S 747 mmHg 74%
    18:00 -3°C° 0 mm 4 m/S 747 mmHg 75%
    19:00 -2°C° 0 mm 3 m/S 748 mmHg 76%
    20:00 -4°C° 0 mm 3 m/S 748 mmHg 76%
    21:00 -4°C° 0 mm 3 m/S 748 mmHg 77%
    22:00 -4°C° 0 mm 3 m/S 749 mmHg 77%
    23:00 -5°C° 0 mm 3 m/S 748 mmHg 78%

    22 Februar, Donnerstag

    Zeit Temperatur Niederschläge Wind Luftdruck Luftfeuchtigkeit
    00:00 -5°C° 0 mm 3 m/S 748 mmHg 80%
    01:00 -6°C° 0 mm 3 m/S 748 mmHg 81%
    02:00 -6°C° 0 mm 3 m/S 748 mmHg 81%
    03:00 -6°C° 0 mm 3 m/S 748 mmHg 82%
    04:00 -6°C° 0 mm 3 m/S 748 mmHg 82%
    05:00 -7°C° 0 mm 3 m/S 748 mmHg 82%
    06:00 -7°C° 0 mm 3 m/S 748 mmHg 82%
    07:00 -7°C° 0 mm 3 m/S 748 mmHg 82%
    08:00 -7°C° 0 mm 4 m/S 748 mmHg 78%
    09:00 -5°C° 0 mm 4 m/S 748 mmHg 74%
    10:00 -6°C° 0 mm 5 m/S 748 mmHg 70%
    11:00 -4°C° 0 mm 4 m/S 748 mmHg 67%
    12:00 -3°C° 0 mm 4 m/S 747 mmHg 65%
    13:00 -3°C° 0 mm 4 m/S 747 mmHg 62%
    14:00 -3°C° 0 mm 4 m/S 747 mmHg 62%
    15:00 -3°C° 0 mm 4 m/S 747 mmHg 61%
    16:00 -3°C° 0 mm 4 m/S 747 mmHg 61%
    17:00 -4°C° 0 mm 4 m/S 747 mmHg 65%
    18:00 -5°C° 0 mm 3 m/S 747 mmHg 70%
    19:00 -5°C° 0 mm 3 m/S 747 mmHg 74%
    20:00 -6°C° 0 mm 3 m/S 747 mmHg 75%
    21:00 -6°C° 0 mm 3 m/S 747 mmHg 76%
    22:00 -5°C° 0 mm 2 m/S 748 mmHg 77%
    23:00 -5°C° 0 mm 2 m/S 748 mmHg 77%

    23 Februar, Freitag

    Zeit Temperatur Niederschläge Wind Luftdruck Luftfeuchtigkeit
    00:00 -5°C° 0 mm 2 m/S 748 mmHg 78%
    01:00 -5°C° 0 mm 2 m/S 748 mmHg 79%
    02:00 -5°C° 0 mm 2 m/S 748 mmHg 80%
    03:00 -6°C° 0 mm 2 m/S 747 mmHg 81%
    04:00 -6°C° 0 mm 2 m/S 747 mmHg 83%
    05:00 -6°C° 0 mm 2 m/S 747 mmHg 84%
    06:00 -6°C° 0 mm 2 m/S 748 mmHg 84%
    07:00 -6°C° 0 mm 2 m/S 748 mmHg 85%
    08:00 -5°C° 0 mm 2 m/S 748 mmHg 79%
    09:00 -6°C° 0 mm 3 m/S 748 mmHg 72%
    10:00 -5°C° 0 mm 3 m/S 748 mmHg 65%
    11:00 -4°C° 0 mm 3 m/S 748 mmHg 62%
    12:00 -4°C° 0 mm 3 m/S 748 mmHg 58%
    13:00 -2°C° 0 mm 3 m/S 748 mmHg 55%
    14:00 -2°C° 0 mm 3 m/S 748 mmHg 55%
    15:00 -2°C° 0 mm 3 m/S 748 mmHg 55%
    16:00 -2°C° 0 mm 3 m/S 748 mmHg 55%
    17:00 -4°C° 0 mm 3 m/S 748 mmHg 60%
    18:00 -5°C° 0 mm 3 m/S 749 mmHg 64%
    19:00 -4°C° 0 mm 2 m/S 749 mmHg 68%
    20:00 -5°C° 0 mm 2 m/S 749 mmHg 69%
    21:00 -6°C° 0 mm 3 m/S 750 mmHg 70%
    22:00 -6°C° 0 mm 3 m/S 750 mmHg 71%
    23:00 -7°C° 0 mm 3 m/S 750 mmHg 70%
    Mehr zeigen